Terug naar catalogus

BREEZE-M DEB

LostHEO
NORAD 34246·DEBRIS·🇷🇺 Russia

Gelanceerd Feb 28, 2006 vanaf Baikonur Cosmodrome

Loading…

Volgende Passages (komende 24 uur)

TLE

VerouderdSource: Space-Track

Epoch: Oct 8, 2021, 22:35 UTC

1 34246U 06006BM  21281.94143599  .00000667  00000-0  47935-3 0  9999
2 34246  51.5578 124.8988 4564335 250.0453  56.3328  6.17951712199758

Volg BREEZE-M DEB in realtime met AllMySat

Download on the App Store